sat.trackr.live / text

‹ back to catalog

STARLINK-35580

NORAD 66155 · 2025-240K

PAYLOAD ACTIVE UNKNOWN

§ Identity

Operator
Country
US
Launch date
2025-10-25
Launch site
AFWTR
Launch vehicle
Mass (kg)
RCS (m²)

Purposes: comms

External: N2YO · Heavens-Above · Gunter

§ Orbital elements

Epoch: 2026-05-25T04:19:40.811808Z

Period
93.85 min
Inclination
53.1602°
Eccentricity
0.0001079
Mean motion
15.34416088 rev/d
Perigee alt
461.9 km
Apogee alt
463.4 km
Semi-major
6,840.8 km
B*
7.7994e-4
RAAN
66.5222°
Arg perigee
77.6656°
Mean anomaly
282.4467°
Rev number
3,371

§ Raw data

STARLINK-355801 66155U 25240K   26145.18033347  .00026080  00000+0  77994-3 0  99972 66155  53.1602  66.5222 0001079  77.6656 282.4467 15.34416088 33716

JSON: /api/v1/satellites/66155 · /tle

For live sub-satellite position, see the globe view (requires WebGL).

§ Visibility from observer

Set your observer location to see the next 7 days of passes ≥ 10°. The values pass through the URL so the page stays shareable.

No JS? Fill the form by hand. The geolocation button needs JavaScript.